{"data":{"norad_id":62659,"intl_designator":"2025-009BC","name":"FLOCK 4G-4","alt_names":[],"object_type":"PAYLOAD","status":"ACTIVE","operator":null,"country":"US","launch_date":"2025-01-14","launch_site_code":"AFWTR","launch_vehicle":null,"mission":null,"orbit_class":"UNKNOWN","rcs_meters":null,"size_class":null,"mass_kg":null,"dimensions":null,"purposes":["earth_obs"],"wikipedia_slug":null,"has_3d_model":false,"image_url":null,"decayed_at":null,"tle_current":{"epoch":"2026-09-19T04:42:07.819776Z","epoch_age_seconds":127409,"freshness":"FRESH","line1":"1 62659U 25009BC  26262.19592384  .00018324  00000+0  51850-3 0  9992","line2":"2 62659  97.3874 343.5114 0002022 348.2928  11.8269 15.36355670150915","mean_motion":15.3635567,"eccentricity":0.0002022,"inclination_deg":97.3874,"raan_deg":343.5114,"arg_perigee_deg":348.2928,"mean_anomaly_deg":11.8269,"bstar":0.0005185,"rev_number":15091,"period_min":93.728296651517,"perigee_km":455.51469979567,"apogee_km":458.27878744159,"semimajor_km":6835.0337436186,"source":"CELESTRAK","updated_at":"2026-09-20T09:00:34.721807Z"}}}